Time,TemperatureF,DewpointF,PressureIn,WindDirection,WindDirectionDegrees,WindSpeedMPH,WindSpeedGustMPH,Humidity,HourlyPrecipIn,Conditions,Clouds,dailyrainin,SoftwareType,DateUTC
2013-11-02 00:42:00,51.0,-99.9,-100.00,SW,225,21.0,29.0,-999,-99.99,,,-99.99,,2013-11-02 07:42:00,
2013-11-02 01:42:00,51.0,-99.9,-100.00,West,270,22.0,34.0,-999,-99.99,,,-99.99,,2013-11-02 08:42:00,
2013-11-02 02:43:00,50.0,-99.9,-100.00,SW,225,20.0,29.0,-999,-99.99,,,-99.99,,2013-11-02 09:43:00,
2013-11-02 03:13:00,50.0,-99.9,-100.00,SW,225,16.0,34.0,-999,-99.99,,,-99.99,,2013-11-02 10:13:00,
2013-11-02 03:43:00,51.0,-99.9,-100.00,SW,225,21.0,34.0,-999,-99.99,,,-99.99,,2013-11-02 10:43:00,
2013-11-02 04:42:00,51.0,-99.9,-100.00,SW,225,29.0,45.0,-999,-99.99,,,-99.99,,2013-11-02 11:42:00,
2013-11-02 05:42:00,51.0,-99.9,-100.00,NW,315,24.0,42.0,-999,-99.99,,,-99.99,,2013-11-02 12:42:00,
2013-11-02 06:42:00,50.0,-99.9,-100.00,NW,315,24.0,35.0,-999,-99.99,,,-99.99,,2013-11-02 13:42:00,
2013-11-02 07:42:00,50.0,-99.9,-100.00,NW,315,24.0,37.0,-999,-99.99,,,-99.99,,2013-11-02 14:42:00,
2013-11-02 09:13:00,50.0,-99.9,-100.00,NW,315,21.0,35.0,-999,-99.99,,,-99.99,,2013-11-02 16:13:00,
2013-11-02 09:43:00,51.0,-99.9,-100.00,SW,225,12.0,27.0,-999,-99.99,,,-99.99,,2013-11-02 16:43:00,
2013-11-02 10:13:00,52.0,-99.9,-100.00,SW,225,17.0,29.0,-999,-99.99,,,-99.99,,2013-11-02 17:13:00,
2013-11-02 10:43:00,53.0,-99.9,-100.00,SE,135,15.0,23.0,-999,-99.99,,,-99.99,,2013-11-02 17:43:00,
2013-11-02 11:12:00,54.0,-99.9,-100.00,SE,135,13.0,24.0,-999,-99.99,,,-99.99,,2013-11-02 18:12:00,
2013-11-02 13:22:00,58.0,-99.9,-100.00,NW,315,17.0,21.0,-999,-99.99,,,-99.99,,2013-11-02 20:22:00,
2013-11-02 13:43:00,56.0,-99.9,-100.00,NW,315,17.0,21.0,-999,-99.99,,,-99.99,,2013-11-02 20:43:00,
2013-11-02 13:53:00,51.0,-99.9,-100.00,NW,315,14.0,38.0,-999,-99.99,,,-99.99,,2013-11-02 20:53:00,
2013-11-02 14:02:00,51.0,-99.9,-100.00,NW,315,14.0,38.0,-999,-99.99,,,-99.99,,2013-11-02 21:02:00,
2013-11-02 14:22:00,53.0,-99.9,-100.00,South,180,15.0,27.0,-999,-99.99,,,-99.99,,2013-11-02 21:22:00,
2013-11-02 14:44:00,55.0,-99.9,-100.00,SW,225,12.0,27.0,-999,-99.99,,,-99.99,,2013-11-02 21:44:00,
2013-11-02 15:24:00,55.0,-99.9,-100.00,SW,225,12.0,25.0,-999,-99.99,,,-99.99,,2013-11-02 22:24:00,
2013-11-02 15:44:00,58.0,-99.9,-100.00,NW,315,12.0,25.0,-999,-99.99,,,-99.99,,2013-11-02 22:44:00,
2013-11-02 15:54:00,57.0,-99.9,-100.00,SE,135,10.0,26.0,-999,-99.99,,,-99.99,,2013-11-02 22:54:00,
2013-11-02 16:02:00,57.0,-99.9,-100.00,SE,135,10.0,26.0,-999,-99.99,,,-99.99,,2013-11-02 23:02:00,
2013-11-02 16:42:00,53.0,-99.9,-100.00,NE,45,8.0,35.0,-999,-99.99,,,-99.99,,2013-11-02 23:42:00,
2013-11-02 17:42:00,52.0,-99.9,-100.00,East,90,9.0,32.0,-999,-99.99,,,-99.99,,2013-11-03 00:42:00,
2013-11-02 18:42:00,52.0,-99.9,-100.00,South,180,8.0,21.0,-999,-99.99,,,-99.99,,2013-11-03 01:42:00,
2013-11-02 19:11:00,51.0,-99.9,-100.00,SE,135,9.0,22.0,-999,-99.99,,,-99.99,,2013-11-03 02:11:00,
2013-11-02 19:43:00,51.0,-99.9,-100.00,East,90,10.0,17.0,-999,-99.99,,,-99.99,,2013-11-03 02:43:00,
2013-11-02 20:45:00,51.0,-99.9,-100.00,SE,135,11.0,19.0,-999,-99.99,,,-99.99,,2013-11-03 03:45:00,
2013-11-02 21:03:00,-999.0,-99.9,-100.00,East,90,10.0,21.0,-999,-99.99,,,-99.99,,2013-11-03 04:03:00,
2013-11-02 21:14:00,51.0,-99.9,-100.00,East,90,10.0,21.0,-999,-99.99,,,-99.99,,2013-11-03 04:14:00,
2013-11-02 21:44:00,51.0,-99.9,-100.00,NE,45,11.0,26.0,-999,-99.99,,,-99.99,,2013-11-03 04:44:00,
2013-11-02 22:44:00,51.0,-99.9,-100.00,SW,225,14.0,22.0,-999,-99.99,,,-99.99,,2013-11-03 05:44:00,
2013-11-02 23:13:00,49.0,-99.9,-100.00,SE,135,6.0,34.0,-999,-99.99,,,-99.99,,2013-11-03 06:13:00,
2013-11-02 23:43:00,48.0,-99.9,-100.00,NW,315,16.0,17.0,-999,-99.99,,,-99.99,,2013-11-03 06:43:00,